FD54 YBRK-YBMK

Flight info

Callsign FD54
Flight time 0h 40m
Altitude 30000
Route EMSUP V308 WELKE
Aircraft TBM9/L-SDFGRWY/S

Departure

Time 2026-05-04 03:09
Airport Rockhampton Airport (YBRK)

Arrival

Time 2026-05-04 03:49
Airport Mackay Airport (YBMK)
Time Latitude Longitude Altitude Speed Heading
2026-05-04 03:04 -23.37394 150.47482 37 ft 0 kts 256°
2026-05-04 03:05 -23.37384 150.47485 37 ft 6 kts 97°
2026-05-04 03:05 -23.37410 150.47513 37 ft 7 kts 185°
2026-05-04 03:05 -23.37496 150.47476 37 ft 21 kts 204°
2026-05-04 03:06 -23.37618 150.47381 36 ft 16 kts 270°
2026-05-04 03:06 -23.37495 150.47317 38 ft 47 kts 343°
2026-05-04 03:06 -23.37159 150.47167 38 ft 48 kts 340°
2026-05-04 03:06 -23.36996 150.47100 38 ft 19 kts
2026-05-04 03:07 -23.36869 150.47079 40 ft 18 kts 278°
2026-05-04 03:07 -23.36961 150.47083 39 ft 19 kts 156°
2026-05-04 03:07 -23.36995 150.47098 38 ft 0 kts 163°
2026-05-04 03:08 -23.37003 150.47100 38 ft 12 kts 162°
2026-05-04 03:08 -23.37302 150.47227 37 ft 80 kts 156°
2026-05-04 03:09 -23.37992 150.47502 159 ft 124 kts 152°
2026-05-04 03:09 -23.38784 150.47879 835 ft 120 kts 155°
2026-05-04 03:09 -23.39524 150.48186 1510 ft 110 kts 156°
2026-05-04 03:09 -23.40192 150.48474 2210 ft 101 kts 153°
2026-05-04 03:10 -23.40945 150.48492 2584 ft 130 kts 206°
2026-05-04 03:10 -23.41575 150.47752 3167 ft 140 kts 238°
2026-05-04 03:10 -23.41951 150.46768 3731 ft 145 kts 263°
2026-05-04 03:10 -23.41724 150.45691 4364 ft 148 kts 287°
2026-05-04 03:11 -23.41428 150.44626 5028 ft 147 kts 285°
2026-05-04 03:11 -23.41120 150.43514 5761 ft 158 kts 284°
2026-05-04 03:11 -23.40785 150.42371 6509 ft 159 kts 285°
2026-05-04 03:11 -23.40264 150.41328 7237 ft 160 kts 317°
2026-05-04 03:12 -23.39397 150.40571 7980 ft 160 kts 325°
2026-05-04 03:12 -23.38374 150.40283 8727 ft 155 kts 10°
2026-05-04 03:12 -23.37323 150.40541 9512 ft 154 kts 15°
2026-05-04 03:12 -23.36282 150.40822 10259 ft 155 kts 14°
2026-05-04 03:13 -23.35247 150.41131 10969 ft 154 kts 14°
2026-05-04 03:13 -23.34223 150.41464 11687 ft 153 kts 14°
2026-05-04 03:13 -23.33213 150.41812 12419 ft 152 kts 14°
2026-05-04 03:13 -23.32205 150.42174 13102 ft 155 kts 14°
2026-05-04 03:14 -23.29753 150.43126 14602 ft 163 kts 15°
2026-05-04 03:14 -23.28049 150.43826 15589 ft 168 kts 15°
2026-05-04 03:14 -23.26943 150.44023 16222 ft 162 kts 346°
2026-05-04 03:14 -23.25869 150.43685 16885 ft 161 kts 337°
2026-05-04 03:15 -23.24800 150.43293 17548 ft 164 kts 337°
2026-05-04 03:15 -23.23713 150.42901 18233 ft 165 kts 337°
2026-05-04 03:15 -23.22614 150.42511 18840 ft 167 kts 337°
2026-05-04 03:15 -23.21504 150.42128 19446 ft 168 kts 337°
2026-05-04 03:16 -23.20383 150.41753 20066 ft 169 kts 337°
2026-05-04 03:16 -23.19254 150.41386 20686 ft 170 kts 337°
2026-05-04 03:16 -23.18134 150.41034 21337 ft 170 kts 337°
2026-05-04 03:16 -23.16993 150.40689 21999 ft 170 kts 337°
2026-05-04 03:17 -23.15851 150.40357 22669 ft 170 kts 336°
2026-05-04 03:17 -23.14708 150.40037 23357 ft 169 kts 336°
2026-05-04 03:17 -23.13570 150.39733 23982 ft 168 kts 337°
2026-05-04 03:17 -23.12439 150.39443 24565 ft 166 kts 337°
2026-05-04 03:18 -23.11319 150.39165 25163 ft 164 kts 337°
2026-05-04 03:18 -23.10209 150.38899 25774 ft 162 kts 337°
2026-05-04 03:18 -23.09113 150.38646 26400 ft 159 kts 337°
2026-05-04 03:18 -23.08032 150.38404 26937 ft 162 kts 337°
2026-05-04 03:19 -23.06917 150.38156 27473 ft 165 kts 337°
2026-05-04 03:19 -23.05786 150.37907 28017 ft 167 kts 337°
2026-05-04 03:19 -23.04643 150.37659 28575 ft 168 kts 337°
2026-05-04 03:19 -23.03494 150.37413 29146 ft 169 kts 337°
2026-05-04 03:20 -23.02345 150.37171 29724 ft 168 kts 337°
2026-05-04 03:20 -23.01175 150.36925 30034 ft 182 kts 337°
2026-05-04 03:20 -22.99856 150.36616 30047 ft 205 kts 337°
2026-05-04 03:20 -22.98396 150.36223 30048 ft 226 kts 336°
2026-05-04 03:21 -22.96817 150.35766 30050 ft 243 kts 336°
2026-05-04 03:21 -22.95162 150.35268 30048 ft 257 kts 336°
2026-05-04 03:21 -22.93411 150.34727 30049 ft 267 kts 336°
2026-05-04 03:21 -22.91597 150.34158 30043 ft 275 kts 336°
2026-05-04 03:22 -22.89740 150.33567 30045 ft 281 kts 337°
2026-05-04 03:22 -22.87847 150.32958 30041 ft 286 kts 336°
2026-05-04 03:22 -22.85929 150.32337 30039 ft 290 kts 336°
2026-05-04 03:22 -22.83990 150.31706 30041 ft 292 kts 336°
2026-05-04 03:23 -22.82034 150.31068 30041 ft 294 kts 337°
2026-05-04 03:23 -22.80099 150.30433 30042 ft 295 kts 336°
2026-05-04 03:23 -22.78128 150.29783 30038 ft 297 kts 336°
2026-05-04 03:23 -22.76150 150.29131 30035 ft 297 kts 336°
2026-05-04 03:24 -22.74170 150.28477 30033 ft 298 kts 336°
2026-05-04 03:24 -22.72190 150.27822 30035 ft 298 kts 336°
2026-05-04 03:24 -22.70232 150.27174 30028 ft 298 kts 336°
2026-05-04 03:24 -22.68218 150.26508 30027 ft 299 kts 336°
2026-05-04 03:25 -22.66258 150.25857 30028 ft 299 kts 336°
2026-05-04 03:25 -22.62194 150.24761 30024 ft 299 kts 337°
2026-05-04 03:25 -22.60258 150.23972 30024 ft 296 kts 331°
2026-05-04 03:26 -22.58392 150.23047 30023 ft 295 kts 329°
2026-05-04 03:26 -22.56545 150.22088 30024 ft 295 kts 329°
2026-05-04 03:26 -22.54698 150.21117 30024 ft 295 kts 329°
2026-05-04 03:26 -22.52857 150.20146 30021 ft 295 kts 328°
2026-05-04 03:27 -22.51012 150.19171 30023 ft 295 kts 328°
2026-05-04 03:27 -22.49174 150.18198 30023 ft 295 kts 328°
2026-05-04 03:27 -22.47365 150.17241 30024 ft 294 kts 328°
2026-05-04 03:27 -22.45514 150.16261 30017 ft 295 kts 329°
2026-05-04 03:28 -22.43676 150.15285 30019 ft 295 kts 328°
2026-05-04 03:28 -22.41836 150.14308 30018 ft 295 kts 329°
2026-05-04 03:28 -22.39996 150.13331 30020 ft 295 kts 328°
2026-05-04 03:28 -22.38154 150.12352 30019 ft 295 kts 328°
2026-05-04 03:29 -22.36316 150.11376 30021 ft 295 kts 328°
2026-05-04 03:29 -22.34474 150.10397 30020 ft 295 kts 328°
2026-05-04 03:29 -22.32636 150.09418 30020 ft 295 kts 328°
2026-05-04 03:29 -22.30823 150.08453 30020 ft 294 kts 328°
2026-05-04 03:30 -22.28986 150.07474 30017 ft 295 kts 328°
2026-05-04 03:30 -22.27150 150.06496 30020 ft 295 kts 328°
2026-05-04 03:30 -22.25309 150.05515 30020 ft 295 kts 328°
2026-05-04 03:30 -22.23472 150.04535 30021 ft 295 kts 328°
2026-05-04 03:31 -22.21632 150.03552 30021 ft 295 kts 328°
2026-05-04 03:31 -22.19794 150.02569 30017 ft 295 kts 328°
2026-05-04 03:31 -22.17958 150.01589 30019 ft 295 kts 328°
2026-05-04 03:31 -22.16145 150.00618 30019 ft 295 kts 328°
2026-05-04 03:32 -22.14306 149.99632 30015 ft 295 kts 328°
2026-05-04 03:32 -22.12470 149.98647 30016 ft 295 kts 328°
2026-05-04 03:32 -22.10633 149.97662 30016 ft 295 kts 328°
2026-05-04 03:32 -22.08794 149.96673 30019 ft 295 kts 328°
2026-05-04 03:33 -22.06961 149.95686 30016 ft 295 kts 328°
2026-05-04 03:33 -22.05128 149.94699 30018 ft 295 kts 328°
2026-05-04 03:33 -22.03292 149.93708 30016 ft 294 kts 328°
2026-05-04 03:33 -22.01625 149.92523 30017 ft 290 kts 318°
2026-05-04 03:34 -22.00091 149.91127 30020 ft 289 kts 316°
2026-05-04 03:34 -21.98553 149.89728 30023 ft 290 kts 318°
2026-05-04 03:34 -21.96937 149.88393 29602 ft 297 kts 320°
2026-05-04 03:34 -21.95275 149.87059 29017 ft 298 kts 319°
2026-05-04 03:35 -21.93622 149.85692 28443 ft 300 kts 319°
2026-05-04 03:35 -21.91979 149.84312 27857 ft 301 kts 319°
2026-05-04 03:35 -21.90315 149.82927 27243 ft 303 kts 319°
2026-05-04 03:35 -21.88662 149.81562 26644 ft 304 kts 319°
2026-05-04 03:36 -21.86981 149.80169 26057 ft 306 kts 319°
2026-05-04 03:36 -21.85293 149.78768 25505 ft 307 kts 319°
2026-05-04 03:36 -21.83601 149.77364 25080 ft 308 kts 320°
2026-05-04 03:36 -21.81905 149.75959 24682 ft 309 kts 320°
2026-05-04 03:37 -21.80200 149.74547 24281 ft 310 kts 320°
2026-05-04 03:37 -21.78489 149.73131 23888 ft 311 kts 320°
2026-05-04 03:37 -21.76772 149.71709 23419 ft 312 kts 320°
2026-05-04 03:37 -21.75045 149.70280 22839 ft 314 kts 320°
2026-05-04 03:38 -21.73333 149.68865 22314 ft 315 kts 320°
2026-05-04 03:38 -21.71591 149.67425 21795 ft 317 kts 320°
2026-05-04 03:38 -21.69840 149.65977 21337 ft 318 kts 321°
2026-05-04 03:38 -21.68083 149.64526 20880 ft 320 kts 321°
2026-05-04 03:39 -21.66318 149.63068 20421 ft 320 kts 321°
2026-05-04 03:39 -21.64550 149.61603 19978 ft 321 kts 321°
2026-05-04 03:39 -21.62770 149.60158 19546 ft 321 kts 324°
2026-05-04 03:39 -21.60926 149.58866 19122 ft 320 kts 326°
2026-05-04 03:40 -21.59067 149.57551 18692 ft 320 kts 325°
2026-05-04 03:40 -21.57221 149.56226 18266 ft 319 kts 326°
2026-05-04 03:40 -21.55376 149.54912 17778 ft 318 kts 326°
2026-05-04 03:40 -21.53527 149.53605 17260 ft 318 kts 326°
2026-05-04 03:41 -21.51675 149.52292 16658 ft 320 kts 326°
2026-05-04 03:41 -21.49815 149.50970 16043 ft 321 kts 326°
2026-05-04 03:41 -21.47967 149.49658 15573 ft 317 kts 326°
2026-05-04 03:41 -21.46131 149.48356 15102 ft 315 kts 326°
2026-05-04 03:42 -21.44329 149.47078 14643 ft 314 kts 326°
2026-05-04 03:42 -21.42516 149.45792 14188 ft 312 kts 326°
2026-05-04 03:42 -21.40703 149.44508 13725 ft 311 kts 327°
2026-05-04 03:42 -21.38899 149.43229 13220 ft 310 kts 327°
2026-05-04 03:43 -21.37099 149.41954 12720 ft 309 kts 327°
2026-05-04 03:43 -21.35310 149.40687 12247 ft 308 kts 327°
2026-05-04 03:43 -21.33527 149.39425 11793 ft 306 kts 327°
2026-05-04 03:43 -21.31778 149.38186 11355 ft 305 kts 327°
2026-05-04 03:44 -21.29929 149.37070 10917 ft 305 kts 339°
2026-05-04 03:44 -21.27921 149.36331 10461 ft 306 kts 342°
2026-05-04 03:44 -21.25921 149.35549 10014 ft 306 kts 341°
2026-05-04 03:44 -21.23923 149.34752 9538 ft 307 kts 341°
2026-05-04 03:45 -21.21914 149.33989 9087 ft 306 kts 342°
2026-05-04 03:45 -21.19899 149.33229 8634 ft 307 kts 342°
2026-05-04 03:45 -21.17895 149.32454 8194 ft 307 kts 342°
2026-05-04 03:45 -21.15897 149.31679 7910 ft 304 kts 342°
2026-05-04 03:46 -21.13899 149.30917 7500 ft 306 kts 342°
2026-05-04 03:46 -21.11921 149.30154 7062 ft 307 kts 340°
2026-05-04 03:46 -21.10193 149.28993 6609 ft 277 kts 317°
2026-05-04 03:46 -21.09104 149.27513 6238 ft 234 kts 300°
2026-05-04 03:47 -21.08500 149.26033 5916 ft 201 kts 285°
2026-05-04 03:47 -21.08258 149.24676 5647 ft 172 kts 272°
2026-05-04 03:47 -21.08275 149.23361 5398 ft 183 kts 261°
2026-05-04 03:47 -21.08536 149.22051 5137 ft 182 kts 249°
2026-05-04 03:48 -21.09049 149.20810 4930 ft 178 kts 237°
2026-05-04 03:48 -21.09729 149.19779 4919 ft 167 kts 226°
2026-05-04 03:48 -21.10539 149.18914 4799 ft 166 kts 217°
2026-05-04 03:48 -21.11520 149.18242 4220 ft 169 kts 204°
2026-05-04 03:49 -21.12608 149.17766 3662 ft 171 kts 193°
2026-05-04 03:49 -21.13827 149.17417 1905 ft 224 kts 193°
2026-05-04 03:49 -21.14463 149.17200 1050 ft 0 kts 194°